This demonstration page uses our WeatherBlox Daily Observations layout. Learn more.

Hourly Observations for April 5, 2017

Temp ( °F °C ) Dew Point ( °F °C ) Humidity (%) Winds ( mph kmh ) Pressure ( in mb ) Visibility ( mi km ) Precip ( " mm )
12:15 am 00:15 Cloudy 46 7.9 34 1.1 62 62 N 16 26 30 1016 10 16.0934 0 0
12:35 am 00:35 Partly Cloudy 45 7 34 1.3 67 67 N 15 24 30 1016 10 16.0934 0 0
12:55 am 00:55 Clear 44 6.5 34 1.1 69 69 N 16 26 29.97 1015 10 16.0934 0 0
1:15 am 01:15 Clear 43 6.2 34 1.1 70 70 NNW 17 28 30 1016 10 16.0934 0 0
1:35 am 01:35 Clear 43 6.1 33 0.8 69 69 N 17 28 30 1016 10 16.0934 0 0
1:55 am 01:55 Clear 42 5.8 33 0.7 70 70 N 17 28 30 1016 10 16.0934 0 0
2:15 am 02:15 Clear 42 5.8 33 0.6 70 70 NNW 16 26 30 1016 10 16.0934 0 0
2:35 am 02:35 Clear 42 5.8 33 0.3 68 68 N 16 26 30 1016 10 16.0934 0 0
2:55 am 02:55 Clear 42 5.5 32 0.2 69 69 NNW 12 19 30.06 1018 10 16.0934 0 0
3:15 am 03:15 Clear 41 5 33 0.3 72 72 NNW 14 22 30.03 1017 10 16.0934 0 0
3:35 am 03:35 Clear 40 4.6 32 0 72 72 NNW 15 24 30.03 1017 10 16.0934 0 0
3:55 am 03:55 Clear 40 4.5 32 0 73 73 NNW 14 22 30.06 1018 10 16.0934 0 0
4:15 am 04:15 Clear 40 4.4 32 0 73 73 NNW 13 20 30.06 1018 10 16.0934 0 0
4:35 am 04:35 Clear 39 4 32 0 75 75 NNW 12 19 30.06 1018 10 16.0934 0 0
4:55 am 04:55 Clear 40 4.3 32 0 74 74 NNW 13 20 30.06 1018 10 16.0934 0 0
5:15 am 05:15 Clear 39 4.1 32 0 75 75 NNW 10 17 30.06 1018 10 16.0934 0 0
5:35 am 05:35 Clear 39 3.7 32 0 77 77 NNW 13 20 30.06 1018 10 16.0934 0 0
5:55 am 05:55 Clear 38 3.6 32 0 78 78 NNW 13 20 30.06 1018 10 16.0934 0 0
6:15 am 06:15 Clear 37 3 31 -0.3 79 79 NW 12 19 30.06 1018 10 16.0934 0 0
6:35 am 06:35 Clear 37 2.5 31 -0.5 81 81 NW 12 19 30.12 1020 10 16.0934 0 0
6:55 am 06:55 Partly Cloudy 37 2.5 30 -1 78 78 NW 9 15 30.12 1020 10 16.0934 0 0
7:15 am 07:15 Partly Cloudy 36 2.2 30 -1.2 78 78 NNW 9 15 30.12 1020 10 16.0934 0 0
7:35 am 07:35 Sunny 36 2.1 30 -1.2 79 79 NW 14 22 30.12 1020 10 16.0934 0 0
7:55 am 07:55 Sunny 36 2.2 30 -1.1 79 79 NW 15 24 30.12 1020 10 16.0934 0 0
8:15 am 08:15 Sunny 37 2.8 31 -0.8 77 77 NW 17 28 30.12 1020 10 16.0934 0 0
8:35 am 08:35 Sunny 38 3.1 31 -0.7 76 76 NW 17 28 30.15 1021 7 11.26538 0 0
8:55 am 08:55 Sunny 40 4.2 32 -0.2 73 73 NW 16 26 30.12 1020 10 16.0934 0 0
9:15 am 09:15 Sunny 42 5.5 32 0 68 68 NNW 20 31 30.12 1020 10 16.0934 0 0
9:35 am 09:35 Sunny 44 6.5 32 0.2 64 64 NNW 18 30 30.09 1019 10 16.0934 0 0
9:55 am 09:55 Sunny 45 7.4 33 0.5 62 62 NNW 24 39 30.06 1018 10 16.0934 0 0
10:15 am 10:15 Sunny 46 8 33 0.5 59 59 NNW 21 33 30.09 1019 10 16.0934 0 0
10:35 am 10:35 Sunny 48 8.8 33 0.7 57 57 N 22 35 30.09 1019 10 16.0934 0 0
10:55 am 10:55 Sunny 49 9.3 33 0.6 55 55 NNW 21 33 30.09 1019 10 16.0934 0 0
11:15 am 11:15 Sunny 50 10 33 0.4 52 52 NNW 22 35 30.06 1018 10 16.0934 0 0
11:35 am 11:35 Sunny 51 10.4 33 0.5 51 51 NNW 21 33 30.06 1018 10 16.0934 0 0
11:55 am 11:55 Partly Cloudy 52 10.9 32 0.2 48 48 N 23 37 30.06 1018 10 16.0934 0 0
12:15 pm 12:15 Partly Cloudy 52 11.3 31 -0.7 44 44 N 16 26 30.03 1017 10 16.0934 0 0
12:35 pm 12:35 Mostly Cloudy 52 10.9 31 -0.8 45 45 N 14 22 30.03 1017 10 16.0934 0 0
12:55 pm 12:55 Mostly Cloudy 53 11.9 30 -1 41 41 NNW 22 35 30.03 1017 10 16.0934 0 0
1:15 pm 13:15 Mostly Cloudy 54 12 29 -1.4 40 40 N 18 30 30.03 1017 10 16.0934 0 0
1:35 pm 13:35 Mostly Cloudy 53 11.9 29 -1.9 39 39 NNW 17 28 30.03 1017 10 16.0934 0 0
1:55 pm 13:55 Mostly Cloudy 54 12.2 28 -2.4 36 36 NNW 21 33 30.03 1017 10 16.0934 0 0
2:15 pm 14:15 Mostly Cloudy 55 13 28 -2.5 34 34 NNW 14 22 30 1016 10 16.0934 0 0
2:35 pm 14:35 Partly Cloudy 55 12.7 27 -3 34 34 NNW 21 33 30.03 1017 10 16.0934 0 0
2:55 pm 14:55 Partly Cloudy 55 12.5 26 -3.4 33 33 NNW 18 30 30.03 1017 10 16.0934 0 0
3:15 pm 15:15 Partly Cloudy 56 13.3 25 -3.8 31 31 NNW 22 35 30 1016 10 16.0934 0 0
3:35 pm 15:35 Partly Cloudy 56 13.2 25 -4.1 30 30 NNW 16 26 30 1016 10 16.0934 0 0
3:55 pm 15:55 Mostly Cloudy 56 13.3 25 -3.8 31 31 N 18 30 29.97 1015 10 16.0934 0 0
4:15 pm 16:15 Partly Cloudy 55 12.7 24 -4.6 30 30 NNW 14 22 29.97 1015 10 16.0934 0 0
4:35 pm 16:35 Mostly Cloudy 55 12.5 21 -6.3 27 27 NNW 17 28 30.03 1017 10 16.0934 0 0
4:55 pm 16:55 Mostly Cloudy 56 13.6 20 -6.6 24 24 NNW 18 30 29.97 1015 10 16.0934 0 0
5:15 pm 17:15 Partly Cloudy 56 13.1 22 -5.3 28 28 NNW 17 28 30 1016 10 16.0934 0 0
5:35 pm 17:35 Partly Cloudy 53 11.9 20 -6.6 27 27 NNW 14 22 30.03 1017 10 16.0934 0 0
5:55 pm 17:55 Partly Cloudy 56 13.1 20 -6.6 25 25 N 14 22 30 1016 10 16.0934 0 0
6:15 pm 18:15 Partly Cloudy 55 13 20 -6.7 25 25 NNW 12 19 30 1016 10 16.0934 0 0
6:35 pm 18:35 Sunny 56 13.1 19 -7 24 24 N 14 22 30 1016 10 16.0934 0 0
6:55 pm 18:55 Partly Cloudy 55 12.6 20 -6.6 26 26 N 13 20 30.03 1017 10 16.0934 0 0
7:15 pm 19:15 Partly Cloudy 54 12.4 20 -6.9 26 26 NNW 15 24 30.03 1017 10 16.0934 0 0
7:35 pm 19:35 Partly Cloudy 53 11.9 19 -7.3 26 26 NNW 10 17 30.06 1018 10 16.0934 0 0
7:55 pm 19:55 Sunny 51 10.6 21 -6.3 30 30 N 7 11 30.06 1018 10 16.0934 0 0
8:15 pm 20:15 Clear 49 9.6 20 -6.6 32 32 N 8 13 30.09 1019 10 16.0934 0 0
8:35 pm 20:35 Clear 44 6.8 21 -6 40 40 N 8 13 30.09 1019 10 16.0934 0 0
8:55 pm 20:55 Clear 42 5.3 22 -5.7 45 45 N 8 13 30.12 1020 10 16.0934 0 0
9:15 pm 21:15 Clear 39 4 22 -5.6 50 50 NE 7 11 30.12 1020 10 16.0934 0 0
9:35 pm 21:35 Partly Cloudy 38 3.5 22 -5.4 53 53 NNE 7 11 30.18 1022 10 16.0934 0 0
9:55 pm 21:55 Partly Cloudy 38 3.6 22 -5.5 52 52 NNE 9 15 30.15 1021 10 16.0934 0 0
10:15 pm 22:15 Partly Cloudy 42 5.4 24 -4.2 50 50 NNE 8 13 30.15 1021 10 16.0934 0 0
10:35 pm 22:35 Clear 38 3.1 25 -4 60 60 NNE 8 13 30.18 1022 10 16.0934 0 0
10:55 pm 22:55 Clear 36 2.1 25 -3.8 65 65 NE 9 15 30.21 1023 10 16.0934 0 0
11:15 pm 23:15 Clear 35 1.8 26 -3.4 69 69 NE 8 13 30.21 1023 10 16.0934 0 0
11:35 pm 23:35 Clear 36 2 27 -3 70 70 NE 5 7 30.21 1023 10 16.0934 0 0
11:55 pm 23:55 Clear 36 2.1 27 -3 69 69 Calm 30.21 1023 10 16.0934 0 0

Powered by AerisWeather